Regional Weather Roundup
Issued by NWS

Home | Current Version | Previous Version | Graphics & Text | Print | Product List | Glossary Off
Versions: 1 2 3 4 5 6 7 8 9 10 11 12 13 14 15 16 17 18 19 20 21 22 23 24 25 26 27 28 29 30 31 32 33 34 35 36 37 38 39 40 41 42 43 44 45 46 47 48 49 50

000
ASUS43 KTOP 300508
RWRKS

WEATHER ROUNDUP FOR KANSAS
NATIONAL WEATHER SERVICE GOODLAND KS
1200 AM CDT SUN AUG 30 2015

NOTE:  "FAIR" INDICATES FEW OR NO CLOUDS BELOW 12,000 FEET WITH NO
SIGNIFICANT WEATHER AND/OR OBSTRUCTIONS TO VISIBILITY.

KSZ001>006-013>018-027>032-041>047-300600-
NORTHWEST KANSAS

CITY           SKY/WX    TMP DP  RH WIND       PRES   REMARKS
GOODLAND       CLEAR     64  49  57 S10       30.13S
HAYS           CLEAR     63  54  72 SE3       30.07F
HILL CITY      CLEAR     60  55  83 CALM      30.08S
RUSSELL        CLEAR     62  60  93 SE8       30.06S
$$

KSZ061>065-074>080-084>089-300600-
SOUTHWEST KANSAS

CITY           SKY/WX    TMP DP  RH WIND       PRES   REMARKS
DODGE CITY     CLEAR     60  52  74 E6        30.09F
ELKHART          N/A     68  51  54 S8          N/A
GARDEN CITY    CLEAR     67  56  67 CALM      30.10F
GREAT BEND     CLEAR     63  57  82 SE7       30.07S
LIBERAL        CLEAR     66  52  59 CALM      30.11F
PRATT          CLEAR     63  59  88 CALM      30.08F
$$

KSZ066>073-081>083-090>101-300600-
SOUTHEAST KANSAS

CITY           SKY/WX    TMP DP  RH WIND       PRES   REMARKS
CHANUTE        CLEAR     67  66  97 N3        30.03R
COFFEYVILLE    CLEAR     68  65  90 NW5       30.01S
HUTCHINSON     CLEAR     58  55  90 CALM      30.06F
MEDICINE LODGE   N/A     63  61  93 CALM      30.04F
NEWTON         CLEAR     64  55  72 NE6       30.07F
PARSONS        CLEAR     67  66  97 CALM      30.03S
WICHITA INTL   CLEAR     66  61  84 NE7       30.04S
WICHITA JABRA  CLEAR     62  60  93 NE5       30.04F
WICHITA MCCONL CLEAR     65  59  81 E6        30.04S
$$

KSZ007>012-019>026-033>040-048>060-102>105-300600-
NORTHEAST KANSAS

CITY           SKY/WX    TMP DP  RH WIND       PRES   REMARKS
CONCORDIA      CLEAR     59  58  96 SE5       30.07S
EMPORIA        CLEAR     62  62 100 NE5       30.05S FOG
LAWRENCE       CLOUDY    66  64  93 NW5       30.05S
MANHATTAN      CLEAR     63  61  93 CALM      30.05F
MARYSVILLE     CLEAR    N/A N/A N/A CALM      30.07S HAZE
OLATHE IND     CLOUDY    69  67  93 N6        30.05S
OLATHE EXE     MOCLDY    69  66  90 N7        30.03F
SALINA         CLEAR     65  61  87 NE3       30.06S
TOPEKA BILLARD PTCLDY    66  64  93 CALM      30.06S
TOPEKA FORBES  CLOUDY    69  65  86 N3        30.06S
$$



USA.gov is the U.S. government's official web portal to all federal, state and local government web resources and services.